weather.gov     
National Weather Service

Regional Weather Roundup
NWS Homepage
This page is being discontinued on March 12, 2014.
The same data is available at this site. Please update your bookmarks.
Thank you, and we apologize for the inconvenience.
Please send an email to SR-SRH.Webmaster@noaa.gov with any concerns.


Current Version
Previous Version:    01  02  03  04  05  06  07  08  09  10  11  12  13  14  15  16  17  18  19  20  21  22  23  24  25  26  
[Printable]
121
ASUS44 KBMX 240610
RWRAL

ALABAMA REGIONAL WEATHER ROUNDUP
NATIONAL WEATHER SERVICE BIRMINGHAM AL
100 AM CDT THU APR 24 2014

NOTE: "FAIR" INDICATES FEW OR NO CLOUDS BELOW 12,000 FEET
WITH NO SIGNIFICANT WEATHER AND/OR OBSTRUCTIONS TO VISIBILITY.

THE REMARK "TC" DENOTES TEMPERATURE IN DEGREES CELSIUS.

ALZ001>011-014-016>018-020-240700-
NORTH ALABAMA

CITY           SKY/WX    TMP DP  RH WIND       PRES   REMARKS
MUSCLE SHOALS  FAIR      48  41  76 CALM      29.98S
6HR MIN TEMP:  48; 6HR MAX TEMP:  71;

HUNTSVILLE     FAIR      53  40  61 CALM      29.96F
6HR MIN TEMP:  52; 6HR MAX TEMP:  70;

DECATUR        FAIR      49  41  74 CALM      29.97F
6HR MIN TEMP:  49; 6HR MAX TEMP:  70;

HALEYVILLE     FAIR      45  44  96 CALM      30.00R
6HR MIN TEMP:  45; 6HR MAX TEMP:  68;

GADSDEN        FAIR      46  43  87 CALM      29.96S
6HR MIN TEMP:  46; 6HR MAX TEMP:  70;

$$

ALZ012-013-022-023-030>036-040>044-240700-
WEST CENTRAL ALABAMA

CITY           SKY/WX    TMP DP  RH WIND       PRES   REMARKS
TUSCALOOSA     FAIR      53  50  89 CALM      29.95R
6HR MIN TEMP:  53; 6HR MAX TEMP:  74;

$$

ALZ015-024>027-033>036-040>044-240700-
CENTRAL ALABAMA

CITY           SKY/WX    TMP DP  RH WIND       PRES   REMARKS
BIRMINGHAM     FAIR      52  46  80 CALM      29.98S
6HR MIN TEMP:  51; 6HR MAX TEMP:  72;

MONTGOMERY     FAIR      59  52  77 CALM      29.93S
6HR MIN TEMP:  59; 6HR MAX TEMP:  78;

SHELBY CO ARPT FAIR      56  49  77 CALM      29.95F
6HR MIN TEMP:  55; 6HR MAX TEMP:  73;

MAXWELL AFB    FAIR      61  55  81 NE1       29.93S
6HR MIN TEMP:  59; 6HR MAX TEMP:  79; 6HR PCP: TRACE;

GREENVILLE     FAIR      57  54  89 CALM      29.92F
6HR MIN TEMP:  57; 6HR MAX TEMP:  77;

$$

ALZ019-021-028-029-037-038-045>048-240700-
EAST CENTRAL ALABAMA

CITY           SKY/WX    TMP DP  RH WIND       PRES   REMARKS
ANNISTON       FAIR      51  47  86 E5        29.96S
6HR MIN TEMP:  50; 6HR MAX TEMP:  74;

ALEXANDER CITY FAIR      55  48  77 CALM      29.96S
6HR MIN TEMP:  54; 6HR MAX TEMP:  77;

AUBURN         FAIR      57  41  54 NE6       29.97F
6HR MIN TEMP:  57; 6HR MAX TEMP:  73;

$$

ALZ051>064-240700-
SOUTHWEST ALABAMA

CITY           SKY/WX    TMP DP  RH WIND       PRES   REMARKS
MOBILE         CLOUDY    66  65  96 CALM      29.93F FOG
6HR MIN TEMP:  63; 6HR MAX TEMP:  74;

BROOKLEY FIELD FAIR      64  62  93 CALM      29.93F FOG
6HR MIN TEMP:  63; 6HR MAX TEMP:  75;

EVERGREEN      MOCLDY    62  59  90 CALM      29.94F
6HR MIN TEMP:  61; 6HR MAX TEMP:  76;

$$

ALZ049-050-065>069-240700-
SOUTHEAST ALABAMA

CITY           SKY/WX    TMP DP  RH WIND       PRES   REMARKS
DOTHAN         FAIR      64  60  87 SW3       29.96F
6HR MIN TEMP:  61; 6HR MAX TEMP:  77;

OZARK          MOCLDY    63  61  93 CALM      29.93F
6HR MIN TEMP:  63; 6HR MAX TEMP:  78;

TROY           FAIR      58  54  86 CALM      29.94F
6HR MIN TEMP:  56; 6HR MAX TEMP:  76;

EUFAULA        FAIR      55  53  93 CALM      29.93S
6HR MIN TEMP:  55; 6HR MAX TEMP:  71;

$$




U.S. Dept. of Commerce
NOAA National Weather Service
1325 East West Highway
Silver Spring, MD 20910
E-mail: w-nws.webmaster@noaa.gov
Page last modified: May 16, 2007
NATIONAL WEATHER SERVICE: for Safety, for Work, for Fun - FOR LIFE